Flag for Switzerland Weather past 2 weeks in Chur, Graubünden, Switzerland

Now
38 °F

Chilly.


Feels Like: 38 °F
Forecast: 27 / 65 °F
Wind: 1 mph from West

Location: Chur-Ems


UV Index: 5 (Moderate)

Visibility: N/A


Pressure: 30.34 "Hg

Humidity: 66%

Dew point: 28 °F

Location of ChurLocation

Historic Weather in Chur

°F

Chur temperature yesterday

Maximum temperature yesterday: 56 °F (at 4:00 PM)
Minimum temperature yesterday: 36 °F (at 8:00 AM)
Average temperature yesterday: 45 °F

Past Weeks' High & Low Weather Summary

 TemperatureHumidityPressure
High73 °F (Apr 7, 3:00 PM)94% (Apr 13, 6:00 AM)30.37 "Hg (Apr 13, 6:00 AM)
Low36 °F (Apr 16, 8:00 AM)22% (Apr 2, 2:00 PM)29.61 "Hg (Apr 4, 4:00 PM)
Average54 °F56%30.04 "Hg
* Reported Apr 1 11:00 PM — Apr 16 11:00 PM, Chur, Weather by CustomWeather, © 2014

Note: Actual official high and low records may vary slightly from our data, if they occured in-between our weather recording intervals... More about our weather records

Advertising

Historic Weather Conditions — Data for Previous 24 hours

 ConditionsComfort  
Time TempWeatherWind HumidityBarometerVisibility
11:00 PM
Apr 16
44 °FPassing clouds.5 mph49%30.32 "Hg12 mi
10:00 PM45 °FCool.6 mph45%30.31 "HgN/A
9:00 PM47 °FCool.9 mph39%30.30 "HgN/A
8:00 PM49 °FPassing clouds.12 mph37%30.27 "Hg12 mi
7:00 PM50 °FCool.10 mph36%30.24 "HgN/A
6:00 PM53 °FCool.10 mph30%30.23 "HgN/A
4:00 PM56 °FRefreshingly cool.13 mph30%30.22 "HgN/A
3:00 PM54 °FCool.13 mph33%30.24 "HgN/A
2:00 PM53 °FPassing clouds.14 mph32%30.24 "Hg19 mi
1:00 PM51 °FCool.9 mph33%30.27 "HgN/A
12:00 PM48 °FCool.3 mph35%30.30 "HgN/A
11:00 AM46 °FPassing clouds.5 mph44%30.32 "Hg11 mi
10:00 AM44 °FQuite cool.6 mph50%30.34 "HgN/A
9:00 AM40 °FChilly.6 mph56%30.36 "HgN/A
8:00 AM36 °FChilly.2 mph63%30.37 "HgN/A
7:00 AM37 °FChilly.5 mph60%30.35 "HgN/A
6:00 AM38 °FChilly.7 mph57%30.34 "HgN/A
5:00 AM40 °FFog.10 mph51%30.32 "Hg7 mi
4:00 AM40 °FQuite cool.10 mph50%30.32 "HgN/A
3:00 AM40 °FQuite cool.10 mph53%30.31 "HgN/A
2:00 AM41 °FFog.15 mph48%30.30 "Hg7 mi
Weather by CustomWeather, © 2014

See weather overview